Weather in Troitsa

Russia / Ryazan Oblast     54°01′34″N   40°14′02″E
temp.,
°C
wind,
m/s
gust,
m/s
humid.,
%
clouds,
%
prec.,
mm/h
press.,
hPa
HPBL,
m
27 february, sat
sat2700:00+1w6159077 0.0 1003626
03:000w6158979 0.0 1003620
06:00+1w8159098 0.0 1001740
09:000nw8149898 0.4 1003938
12:00−6nnw81286100 0.4 1005744
15:00−7nnw61187100 0.4 1008692
18:00−8nnw3894100 0.1 1010282
21:00−10nnw379697 0.1 1013141
28 february, sun
sun2800:00−10nnw239696 0.1 101362
03:00−10nw239798 0.1 101460
06:00−10nw359694 0.1 1015164
09:00−8nnw359490 0.3 1015269
12:00−6nnw349092 0.1 1015431
15:00−5nnw359096 0.1 1015498
18:00−5nnw2594100 0.1 1016199
21:00−6ne2596100 0.1 1019226
1 march, mon
mon100:00−8ne129599 0.1 102024
03:00−9nnw129697 0.1 102321
06:00−12n229790 0.1 102421
09:00−10nnw119476 0.1 102563
12:00−5w228955 0.0 1025265
15:00−3sw369275 0.0 1024424
18:00−3wsw499595 0.0 1022317
21:00−2wsw5109298 0.1 1021524
2 march, tue
tue200:00−1wsw61293100 0.1 1017544
03:000w61294100 0.1 1014651
06:00+1w71494100 0.0 1010790
09:00+1wnw81498100 0.2 1008858
12:00+1nw8149698 0.3 10081028
15:00+1nw8138495 0.4 10091102
18:00−1nw6138952 0.0 1010703
21:00−2nw6148972 0.1 1011686
3 march, wed
wed300:00−3nw6149142 0.0 1011507
03:00−4nw5129368 0.1 1012409
06:00−4nw5139297 0.0 1013501
09:00−4nnw7138998 0.1 1015988
12:00−2nnw7118383 0.1 1016903
15:00−2nnw7118378 0.1 10171141
18:00−4nw4109096 0.1 1018344
21:00−7nw379175 0.1 1020133